Location: Unspecified
(0.0000°N, 0.0000°E)
Time: 11:03:54
(UTC+00:00)

Tiros 1 - Pass Details

Date: 20 November 2019
Orbit: 630 x 664 km, 48.4° (Epoch: 14 December)

Event Time Altitude Azimuth Distance (km) Brightness Sun altitude
Rises 23:56:41 0° 290° (WNW) 2,961 - -70.2°
Reaches altitude 10° 23:59:46 10° 270° (W) 2,059 - -70.1°
Maximum altitude 00:02:47 17° 230° (SW) 1,663 - -70.0°
Drops below altitude 10° 00:05:50 10° 190° (S) 2,073 - -69.8°
Sets 00:08:58 0° 169° (S) 2,990 - -69.6°
